This is the latest recevied weather packets stored in our database for station/object KC5AV. If no packets are shown the sender has not sent any weather packets the latest 10 day(s).
| Time | Temp. | Humidity | Pressure | Rain* | Wind** | Luminosity | Snow |
|---|---|---|---|---|---|---|---|
| 1777249401 | 28.33° C | 73% | 1008.2 hPa | 0 mm | - | 27 W/m² | - |
| 1777249099 | 28.89° C | 73% | 1008.2 hPa | 0 mm | - | 32 W/m² | - |
| 1777248795 | 28.89° C | 71% | 1008.3 hPa | 0 mm | - | 40 W/m² | - |
| 1777248492 | 28.89° C | 70% | 1008.3 hPa | 0 mm | - | 46 W/m² | - |
| 1777248189 | 29.44° C | 70% | 1008.2 hPa | 0 mm | - | 51 W/m² | - |
| 1777247888 | 29.44° C | 69% | 1008.2 hPa | 0 mm | - | 52 W/m² | - |
| 1777247584 | 30° C | 69% | 1008.1 hPa | 0 mm | - | 64 W/m² | - |
| 1777247282 | 30° C | 68% | 1008.2 hPa | 0 mm | - | 69 W/m² | - |
| 1777246980 | 29.44° C | 69% | 1008.3 hPa | 0 mm | - | 96 W/m² | - |
| 1777246676 | 30° C | 68% | 1008.5 hPa | 0 mm | - | 75 W/m² | - |
| 1777246372 | 30° C | 68% | 1008.4 hPa | 0 mm | - | 103 W/m² | - |
| 1777246070 | 30° C | 68% | 1008.3 hPa | 0 mm | - | 109 W/m² | - |
| 1777245767 | 30.56° C | 68% | 1008.3 hPa | 0 mm | - | 105 W/m² | - |
| 1777245464 | 30.56° C | 65% | 1008.4 hPa | 0 mm | - | 103 W/m² | - |
| 1777245160 | 30.56° C | 66% | 1008.2 hPa | 0 mm | - | 165 W/m² | - |
| 1777244857 | 30.56° C | 65% | 1008.5 hPa | 0 mm | - | 181 W/m² | - |
| 1777244552 | 30.56° C | 68% | 1008.4 hPa | 0 mm | - | 200 W/m² | - |
| 1777244248 | 30.56° C | 67% | 1008.5 hPa | 0 mm | - | 114 W/m² | - |
| 1777243947 | 30° C | 68% | 1008.4 hPa | 0 mm | - | 238 W/m² | - |
| 1777243643 | 30.56° C | 67% | 1008.4 hPa | 0 mm | - | 261 W/m² | - |
| 1777243341 | 30.56° C | 66% | 1008.3 hPa | 0 mm | - | 275 W/m² | - |
| 1777243036 | 30.56° C | 67% | 1008.1 hPa | 0 mm | - | 154 W/m² | - |
| 1777242733 | 30.56° C | 67% | 1008.2 hPa | 0 mm | - | 275 W/m² | - |
| 1777242429 | 30.56° C | 67% | 1008.4 hPa | 0 mm | - | 283 W/m² | - |
| 1777242126 | 30.56° C | 66% | 1008.2 hPa | 0 mm | - | 269 W/m² | - |
* Rain latest hour (hover to see other rain measurements)
** Current wind speed in m/s (hover to see current wind gust speed)